Weather History for KLUK - November, 2012

Change the Weather History Date:

Friday, November 30, 2012

  Actual Average Record
Temperature  
Mean Temperature 43 °F -  
Max Temperature 59 °F 47 °F - (-1)
Min Temperature 27 °F 31 °F - (-1)
Degree Days  
Heating Degree Days 22    
Moisture  
Dew Point 32 °F    
Average Humidity 74    
Maximum Humidity 92    
Minimum Humidity 42    
Precipitation  
Precipitation 0.00 in - - ()
Sea Level Pressure  
Sea Level Pressure 30.24 in    
Wind  
Wind Speed 3 mph (SSW)    
Max Wind Speed 17 mph    
Max Gust Speed -    
Visibility 9 miles    
Events      
Averages and records for this station are not official NWS values.
T = Trace of Precipitation, MM = Missing Value Source: NWS Daily Summary

Daily Weather History Graph

Daily Weather History Graph

Search for Another Location

Airport or City:

Trip Planner

Search our weather history database for the weather conditions in past years. The results will help you decide how hot, cold, wet, or windy it might be!

Date:

Astronomy

Nov. 30, 2012 Rise Set
Actual Time 7:37 AM EST 5:15 PM EST
Civil Twilight 7:07 AM EST 5:45 PM EST
Nautical Twilight 6:34 AM EST 6:18 PM EST
Astronomical Twilight 6:02 AM EST 6:50 PM EST
Moon 7:09 PM EST (11/30) 9:08 AM EST (11/30)
Length of Visible Light 10h 37m
Length of Day
9h 38m
Waning Gibbous, 96% of the Moon is Illuminated
Nov 30
Waning Gibbous
Dec 6
Last Quarter
Dec 13
New
Dec 20
First Quarter
Dec 28
Full

Hourly Weather History & Observations

Time (EST) Temp. Windchill Dew Point Humidity Pressure Visibility Wind Dir Wind Speed Gust Speed Precip Events Conditions
12:53 AM 30.0 °F - 26.1 °F 85% 30.26 in 8.0 mi Calm Calm - N/A   Clear
1:53 AM 28.0 °F - 26.1 °F 92% 30.26 in 8.0 mi Calm Calm - N/A   Clear
2:53 AM 28.9 °F - 26.1 °F 89% 30.27 in 6.0 mi Calm Calm - N/A   Clear
3:53 AM 28.0 °F - 25.0 °F 88% 30.26 in 5.0 mi Calm Calm - N/A   Clear
4:53 AM 27.0 °F - 25.0 °F 92% 30.26 in 5.0 mi Calm Calm - N/A   Clear
5:53 AM 28.0 °F - 25.0 °F 88% 30.26 in 6.0 mi Calm Calm - N/A   Clear
6:53 AM 27.0 °F - 25.0 °F 92% 30.27 in 5.0 mi Calm Calm - N/A   Clear
7:53 AM 27.0 °F - 25.0 °F 92% 30.27 in 10.0 mi Calm Calm - N/A   Clear
8:53 AM 30.9 °F - 28.9 °F 92% 30.29 in 10.0 mi Calm Calm - N/A   Clear
9:53 AM 42.1 °F - 35.1 °F 76% 30.29 in 10.0 mi Calm Calm - N/A   Clear
10:53 AM 51.1 °F - 34.0 °F 52% 30.27 in 10.0 mi South 8.1 mph - N/A   Clear
11:53 AM 57.0 °F - 35.1 °F 44% 30.23 in 10.0 mi SSW 13.8 mph - N/A   Clear
12:53 PM 57.9 °F - 35.1 °F 42% 30.19 in 10.0 mi SSW 17.3 mph - N/A   Clear
1:53 PM 59.0 °F - 36.0 °F 42% 30.19 in 10.0 mi SSW 16.1 mph - N/A   Mostly Cloudy
2:53 PM 57.9 °F - 37.0 °F 46% 30.18 in 10.0 mi South 15.0 mph - N/A   Scattered Clouds
3:53 PM 57.0 °F - 37.0 °F 47% 30.17 in 10.0 mi SSW 10.4 mph - N/A   Overcast
4:53 PM 54.0 °F - 37.9 °F 55% 30.18 in 10.0 mi SSW 8.1 mph - N/A   Overcast
5:53 PM 50.0 °F - 37.9 °F 63% 30.20 in 10.0 mi South 8.1 mph - N/A   Scattered Clouds
6:53 PM 46.4 °F 45.2 °F 37.4 °F 71% 30.20 in 10.0 mi WSW 3.5 mph - N/A   Clear
7:53 PM 41.0 °F - 36.0 °F 82% 30.24 in 10.0 mi Calm Calm - N/A   Scattered Clouds
8:53 PM 41.0 °F - 36.0 °F 82% 30.24 in 10.0 mi Calm Calm - N/A   Mostly Cloudy
9:53 PM 39.9 °F - 36.0 °F 86% 30.24 in 10.0 mi Calm Calm - N/A   Overcast
10:53 PM 41.0 °F - 36.0 °F 82% 30.24 in 10.0 mi Calm Calm - N/A   Overcast
11:53 PM 41.0 °F - 37.0 °F 86% 30.24 in 10.0 mi Calm Calm - N/A   Overcast